Temp
56 56 57 56 54 53 52 49 53 67 68 57 45 50 57 63 68 69 65 65 62 58 59 56 58 58 63 71 67 57 54 48 44 52 61 64 58 52 48 42 41 42 40 42
56 56 57 56 54 53 49 44 46 63 66 49 48 54 61 65 65 65 64 63 65 62 57 52 59 63 70 70 65 56 56 47 41 46 52 57 53 55 51 47 41 41 38 43
56 56 58 56 55 54 48 47 48 55 56 51 49 50 54 59 69 65 66 63 63 58 55 56 54 59 67 70 66 65 60 45 46 41 48 52 51 56 58 48 40 41 43 47
56 56 57 56 56 55 49 47 48 50 46 50 49 48 54 56 56 64 63 60 59 54 48 50 51 56 59 65 64 60 56 48 48 50 54 55 55 56 58 51 50 45 47 47
56 56 56 56 56 54 48 46 47 49 47 48 50 49 49 54 58 56 59 55 60 57 51 53 49 51 49 53 56 52 50 47 45 46 56 56 55 59 59 57 56 52 52 50
56 56 56 56 55 53 46 49 50 49 47 47 47 47 52 56 57 59 62 61 56 55 59 62 62 60 58 58 55 50 50 46 42 39 50 52 47 54 56 55 54 52 46 51
56 56 56 56 55 54 50 46 46 45 44 46 50 54 57 57 56 53 62 60 54 63 64 62 56 51 54 56 56 53 46 44 42 39 42 35 51 57 59 55 57 56 54 55
56 56 56 56 56 55 52 53 51 49 42 47 51 53 51 54 54 54 58 62 63 59 56 52 47 47 50 53 55 50 52 44 41 40 39 47 52 54 54 50 51 57 55 56
56 56 56 56 56 54 52 52 55 50 45 45 55 50 50 47 45 50 56 63 61 58 49 48 38 39 43 45 51 50 48 47 43 41 38 38 49 58 60 56 43 57 56 54
57 56 56 56 56 55 52 52 56 52 47 53 50 47 47 51 46 45 48 55 56 53 45 43 41 41 49 43 42 43 42 43 41 40 40 46 57 60 60 43 45 56 56 53
57 57 56 56 56 56 52 50 56 52 46 49 54 57 51 49 48 44 50 50 50 47 43 43 42 41 45 42 45 42 42 40 38 40 40 40 59 57 49 51 54 57 56 56
56 57 56 56 56 56 55 49 58 58 47 47 53 58 62 58 57 50 47 47 46 49 45 43 43 44 43 41 40 46 42 45 42 44 46 54 54 55 57 56 56 58 56 57
56 57 56 56 56 55 55 50 51 53 49 52 49 55 61 61 63 64 49 47 53 49 51 46 44 43 44 40 42 45 47 48 44 48 54 53 55 57 57 57 57 59 58 59
55 56 56 56 55 54 55 50 49 50 48 43 47 59 55 62 58 60 63 60 52 51 50 47 44 43 48 43 46 46 49 49 46 46 50 52 55 56 58 59 60 59 60 59
55 56 56 55 55 54 53 51 49 52 47 42 42 50 61 60 58 58 60 58 50 48 46 43 43 44 46 45 43 43 49 49 45 47 54 55 55 59 59 56 58 59 58 59
55 55 56 54 54 54 49 45 48 51 52 46 39 49 52 55 59 57 54 57 49 49 47 45 45 48 49 43 39 49 52 54 53 55 58 56 59 58 58 55 56 59 60 60
54 54 53 53 53 51 48 44 51 52 51 44 39 40 50 54 52 52 52 51 50 50 46 45 47 49 49 41 41 51 58 59 57 58 57 55 57 56 59 59 60 60 60 59
54 53 53 53 53 51 48 56 55 51 49 50 39 40 45 50 48 50 49 48 47 47 48 45 45 46 44 40 47 51 55 56 57 57 60 58 56 56 56 57 58 58 58 59
53 53 53 51 48 44 46 58 57 54 51 44 41 37 39 52 47 48 49 48 44 47 45 44 47 43 42 47 48 51 54 53 55 54 55 55 55 54 55 56 57 56 58 59
53 50 47 44 45 56 56 49 48 48 49 46 39 40 40 47 45 48 48 45 46 41 45 47 43 43 46 49 50 51 53 56 57 52 51 52 53 54 54 54 56 57 58 61
48 46 44 47 56 51 48 44 41 45 40 41 41 43 42 48 44 47 52 46 43 40 43 45 41 40 46 50 51 52 53 54 56 55 55 54 53 55 54 56 58 58 59 59
49 48 52 50 48 46 43 42 40 42 41 43 41 43 44 47 49 46 46 44 42 40 45 44 41 44 49 50 52 53 53 55 57 57 57 57 56 56 56 56 57 59 61 60
50 48 46 44 44 38 39 37 40 37 43 45 44 44 46 46 49 45 43 43 40 46 42 41 43 46 50 50 51 54 56 58 58 58 59 57 57 59 56 57 59 60 60 59
45 43 36 40 38 40 40 42 41 45 46 46 48 46 45 45 45 45 44 46 47 42 40 41 44 49 52 54 55 55 57 56 55 55 57 58 58 58 59 58 59 60 59 58
43 43 37 39 42 46 48 47 46 50 49 47 47 47 47 45 47 45 46 45 43 45 44 46 49 49 52 53 54 54 54 54 53 56 55 58 59 58 58 59 59 58 59 59
43 45 41 46 45 45 44 46 46 47 48 47 47 46 45 43 45 45 43 45 42 44 45 47 47 50 50 51 53 55 54 52 51 52 54 54 54 55 55 56 57 58 59 60
43 43 47 46 46 46 48 47 48 51 47 43 45 45 43 46 43 43 44 44 45 47 46 46 48 49 50 51 52 54 53 51 51 51 51 51 53 54 55 55 55 58 56 54
MSLP
1020.25 1019.62 1018.98 1018.40 1017.73 1016.50 1015.34 1015.70 1014.36 1010.62 1009.86 1011.16 1012.34 1012.01 1010.86 1009.30 1007.93 1006.85 1006.34 1006.28 1006.66 1007.03 1007.33 1007.35 1007.07 1006.84 1006.38 1006.08 1006.24 1007.31 1008.36 1009.53 1010.00 1009.67 1008.85 1008.78 1008.85 1009.38 1010.54 1012.02 1012.49 1012.43 1011.82 1009.87
1020.37 1019.76 1019.11 1018.70 1018.39 1018.06 1018.04 1017.24 1015.28 1011.16 1010.68 1012.25 1013.07 1012.12 1010.96 1009.75 1008.68 1007.80 1007.29 1006.94 1006.93 1007.16 1007.52 1007.80 1007.67 1007.38 1007.07 1006.60 1007.10 1007.89 1008.58 1010.00 1010.67 1010.49 1010.06 1009.37 1009.15 1009.45 1010.06 1011.20 1012.08 1012.19 1012.01 1010.00
1020.56 1019.94 1019.35 1018.92 1018.68 1018.44 1018.42 1017.82 1016.39 1013.77 1012.91 1013.39 1013.38 1012.92 1011.62 1010.37 1008.94 1008.39 1008.04 1007.59 1007.25 1007.74 1008.10 1008.56 1008.59 1008.33 1007.98 1007.83 1008.04 1008.41 1008.77 1010.78 1011.33 1011.35 1010.77 1010.17 1009.78 1009.39 1009.52 1010.48 1011.63 1011.43 1010.98 1009.97
1020.61 1020.11 1019.48 1019.05 1018.67 1018.35 1018.51 1017.98 1017.17 1016.20 1015.35 1014.56 1014.13 1013.37 1012.39 1011.35 1010.54 1009.32 1008.66 1008.36 1008.39 1008.43 1008.95 1009.30 1009.47 1009.45 1009.18 1008.76 1009.01 1009.34 1010.05 1011.18 1011.37 1011.07 1010.71 1010.19 1009.64 1009.41 1009.34 1009.83 1010.08 1010.71 1009.96 1009.88
1020.59 1020.12 1019.61 1019.16 1018.74 1018.28 1018.49 1018.27 1017.64 1016.66 1016.12 1015.20 1014.59 1013.81 1013.35 1012.48 1011.55 1010.67 1009.64 1009.07 1008.86 1008.65 1009.23 1009.53 1009.84 1009.95 1010.13 1010.01 1009.84 1010.38 1011.18 1011.61 1011.69 1011.40 1010.46 1009.76 1009.38 1008.86 1008.81 1009.02 1009.32 1009.60 1009.60 1009.40
1020.53 1020.18 1019.67 1019.24 1018.75 1018.58 1018.53 1018.14 1017.70 1017.28 1016.47 1015.86 1015.16 1014.46 1013.77 1013.01 1012.49 1010.97 1010.19 1009.79 1009.54 1009.31 1009.10 1009.06 1009.26 1009.39 1009.73 1009.96 1010.40 1010.79 1011.60 1012.02 1012.38 1011.66 1010.80 1010.13 1009.31 1008.34 1008.30 1008.56 1008.86 1009.28 1009.45 1009.00
1020.34 1020.12 1019.82 1019.36 1018.91 1018.76 1018.91 1018.60 1018.38 1018.08 1017.13 1016.23 1015.30 1014.56 1014.14 1013.55 1013.07 1012.48 1010.79 1009.99 1009.75 1009.20 1008.99 1009.21 1009.61 1009.97 1010.13 1009.97 1009.82 1010.35 1011.23 1011.87 1012.23 1012.07 1011.44 1010.53 1008.91 1008.37 1008.37 1008.68 1008.53 1008.65 1008.98 1008.90
1020.10 1019.94 1019.72 1019.32 1018.92 1018.65 1018.78 1018.53 1018.44 1018.09 1017.33 1016.29 1015.39 1014.75 1014.35 1013.84 1013.27 1012.77 1011.65 1010.57 1010.14 1009.89 1009.94 1010.51 1010.86 1011.01 1010.87 1010.17 1010.01 1010.52 1010.88 1011.76 1012.35 1012.38 1011.80 1010.28 1009.25 1008.90 1008.94 1009.06 1008.66 1008.38 1008.69 1008.85
1019.79 1019.64 1019.53 1019.20 1018.87 1018.59 1018.66 1018.47 1018.18 1018.18 1017.58 1016.00 1015.08 1014.82 1014.54 1014.44 1013.96 1013.40 1012.16 1010.98 1010.32 1010.38 1011.29 1012.14 1012.80 1012.92 1012.29 1011.70 1010.80 1010.77 1011.13 1011.31 1012.17 1012.62 1012.07 1011.08 1009.83 1008.98 1009.56 1009.68 1009.10 1008.40 1008.63 1008.97
1019.39 1019.31 1019.19 1019.00 1018.72 1018.42 1018.47 1018.20 1017.84 1017.86 1017.41 1015.62 1015.03 1014.64 1014.38 1014.21 1014.25 1014.22 1013.31 1012.48 1011.69 1011.44 1012.54 1013.30 1013.80 1013.58 1012.74 1012.54 1012.03 1011.99 1012.15 1012.44 1012.66 1012.42 1011.96 1010.81 1009.14 1009.11 1009.53 1009.81 1009.41 1008.39 1008.49 1008.92
1018.95 1018.88 1018.76 1018.65 1018.43 1018.22 1018.18 1017.98 1017.73 1017.62 1017.17 1015.65 1014.75 1014.14 1013.92 1014.09 1014.29 1014.46 1013.68 1013.27 1013.02 1013.02 1013.53 1014.08 1014.05 1013.87 1013.15 1013.00 1012.45 1012.39 1012.91 1013.05 1013.14 1012.79 1011.76 1010.58 1009.31 1009.51 1009.46 1008.69 1008.32 1008.12 1008.15 1008.37
1018.48 1018.43 1018.36 1018.20 1017.98 1017.92 1017.74 1018.06 1017.07 1017.24 1017.41 1015.73 1014.33 1013.83 1013.13 1013.24 1013.36 1013.75 1013.95 1013.90 1013.67 1013.37 1013.98 1014.42 1014.32 1014.11 1013.66 1013.57 1013.34 1012.56 1012.73 1012.64 1012.64 1012.19 1010.81 1009.83 1009.54 1008.99 1008.46 1008.42 1008.01 1007.54 1007.78 1008.09
1017.99 1017.92 1017.98 1017.86 1017.60 1017.46 1017.54 1017.68 1017.63 1017.18 1016.93 1015.34 1014.20 1012.55 1011.73 1011.99 1011.94 1012.33 1013.50 1013.38 1012.94 1013.22 1013.11 1014.03 1014.46 1014.54 1013.96 1013.84 1013.26 1012.63 1012.21 1012.35 1012.36 1011.76 1009.80 1009.36 1009.30 1008.92 1008.64 1008.22 1007.99 1007.69 1007.82 1007.99
1017.54 1017.48 1017.48 1017.49 1017.29 1017.12 1017.03 1017.26 1017.47 1017.40 1017.02 1016.03 1013.37 1011.82 1011.66 1010.83 1011.13 1011.54 1011.77 1011.86 1012.40 1012.89 1013.35 1014.01 1014.44 1014.44 1013.49 1013.28 1012.83 1012.70 1012.18 1012.24 1011.79 1011.11 1009.98 1009.47 1008.76 1008.40 1007.97 1007.86 1007.98 1007.92 1007.83 1008.00
1017.06 1016.99 1017.03 1016.93 1016.86 1016.62 1016.55 1016.89 1016.91 1016.82 1017.17 1016.12 1014.34 1012.61 1009.88 1009.62 1010.03 1010.44 1010.78 1011.55 1012.36 1013.24 1014.01 1014.35 1014.41 1013.75 1013.51 1013.03 1012.92 1012.09 1011.48 1010.90 1010.86 1009.86 1008.87 1008.93 1007.94 1007.15 1007.35 1007.91 1008.01 1007.94 1007.80 1007.92
1016.60 1016.55 1016.51 1016.51 1016.52 1016.20 1016.53 1016.80 1015.91 1016.20 1016.40 1016.39 1014.96 1012.12 1010.01 1009.12 1009.28 1009.84 1010.27 1010.89 1012.06 1012.69 1013.32 1013.67 1013.40 1012.69 1012.75 1012.90 1012.29 1010.53 1010.10 1009.70 1009.49 1009.16 1008.20 1007.98 1007.31 1007.39 1007.87 1008.05 1008.00 1008.02 1007.97 1007.94
1016.15 1016.12 1016.12 1016.08 1015.99 1016.02 1015.93 1015.76 1015.66 1015.66 1016.28 1016.04 1015.09 1012.97 1010.16 1008.90 1008.97 1009.65 1010.26 1010.83 1011.40 1011.82 1012.65 1013.03 1012.79 1012.45 1012.47 1012.31 1011.43 1010.28 1009.42 1008.79 1008.38 1007.65 1007.79 1007.73 1007.41 1007.44 1007.79 1007.85 1007.91 1007.89 1008.00 1007.96
1015.76 1015.78 1015.76 1015.40 1015.57 1015.95 1015.56 1014.33 1014.64 1015.35 1015.65 1015.32 1015.00 1013.15 1011.17 1009.15 1009.38 1009.82 1010.03 1010.83 1011.44 1011.78 1012.00 1012.32 1012.34 1012.16 1012.07 1011.76 1010.05 1009.47 1008.99 1008.23 1007.60 1007.04 1006.76 1006.62 1006.91 1007.37 1007.65 1007.60 1007.70 1007.97 1008.08 1007.92
1015.53 1015.58 1015.34 1015.43 1015.69 1015.73 1014.47 1013.76 1014.08 1014.52 1015.07 1014.77 1014.68 1013.85 1011.82 1009.60 1009.64 1009.68 1010.31 1010.73 1011.73 1011.77 1011.78 1011.84 1011.91 1011.77 1011.41 1010.10 1009.83 1009.37 1008.68 1008.24 1007.61 1007.29 1007.13 1007.24 1007.30 1007.67 1007.62 1007.38 1007.28 1007.62 1008.00 1007.82
1015.33 1015.46 1015.47 1014.89 1014.38 1013.81 1013.76 1014.03 1014.43 1014.39 1014.32 1014.46 1014.34 1013.35 1012.41 1011.04 1010.45 1010.12 1010.51 1010.94 1011.23 1011.60 1011.06 1011.09 1011.20 1011.01 1010.16 1009.79 1009.50 1008.98 1008.38 1007.71 1007.46 1007.54 1007.57 1007.57 1007.60 1007.44 1007.69 1007.89 1007.77 1007.57 1007.29 1007.18
1015.05 1014.87 1014.58 1013.91 1013.54 1013.73 1013.90 1014.12 1014.34 1014.24 1014.29 1013.52 1012.67 1012.31 1012.12 1010.90 1010.64 1010.04 1010.08 1010.73 1011.13 1011.25 1010.83 1010.91 1010.80 1010.63 1010.12 1009.77 1009.66 1009.20 1008.57 1007.96 1007.46 1007.20 1007.09 1007.28 1007.47 1007.24 1007.49 1007.80 1007.79 1007.65 1007.36 1007.47
1014.65 1014.58 1013.89 1013.65 1013.64 1013.50 1013.71 1013.64 1013.66 1013.36 1012.65 1011.65 1011.39 1011.00 1011.12 1010.46 1010.01 1010.14 1010.24 1010.51 1010.99 1010.65 1010.37 1010.57 1010.65 1010.53 1010.09 1009.95 1009.53 1009.18 1008.80 1008.27 1007.91 1007.53 1007.25 1007.12 1007.43 1007.36 1007.28 1007.40 1007.47 1007.38 1007.39 1007.39
1014.33 1014.03 1013.71 1013.48 1013.54 1013.30 1013.21 1012.56 1012.28 1011.86 1010.93 1010.25 1010.23 1010.21 1009.93 1009.96 1009.61 1009.99 1010.14 1010.28 1010.40 1009.96 1010.28 1010.63 1010.80 1010.58 1010.22 1010.08 1009.75 1009.09 1008.49 1008.11 1007.86 1007.59 1007.62 1007.67 1007.83 1007.46 1007.29 1007.25 1007.25 1007.44 1007.31 1007.77
1014.04 1013.47 1013.35 1013.06 1012.76 1012.32 1011.57 1011.18 1010.70 1010.11 1009.73 1009.47 1009.34 1009.38 1009.27 1009.23 1009.55 1009.60 1009.80 1009.53 1009.61 1009.94 1010.26 1010.75 1010.83 1010.66 1010.20 1009.64 1009.19 1009.05 1008.76 1008.51 1008.20 1007.66 1007.66 1007.69 1007.60 1007.51 1007.54 1007.82 1007.59 1007.53 1007.53 1007.46
1013.61 1013.27 1012.67 1012.27 1011.76 1011.19 1010.53 1010.09 1009.95 1009.18 1008.88 1009.00 1008.92 1008.85 1008.85 1009.11 1009.14 1009.07 1009.30 1009.57 1010.08 1010.19 1010.29 1010.39 1010.44 1010.22 1010.02 1009.55 1009.34 1009.08 1008.77 1008.67 1008.71 1008.57 1008.17 1007.95 1007.86 1007.82 1007.80 1007.85 1007.81 1007.76 1007.89 1007.71
1013.65 1013.07 1012.60 1011.63 1011.00 1010.43 1009.92 1009.48 1009.08 1008.38 1008.45 1008.72 1008.60 1008.63 1009.01 1009.41 1009.37 1009.30 1009.44 1009.50 1009.88 1010.12 1010.21 1010.34 1010.45 1010.29 1010.06 1009.68 1009.35 1009.13 1009.14 1009.14 1009.05 1009.02 1008.75 1008.57 1008.47 1008.23 1008.20 1007.92 1007.65 1007.67 1007.93 1008.19
1013.45 1012.86 1012.29 1011.79 1011.19 1010.58 1009.75 1009.46 1008.97 1008.68 1008.72 1008.93 1008.92 1009.42 1009.61 1009.48 1009.59 1009.75 1009.69 1009.79 1010.07 1010.23 1010.30 1010.35 1010.31 1010.18 1009.96 1009.62 1009.40 1009.33 1009.51 1009.60 1009.42 1009.29 1009.09 1009.04 1008.80 1008.53 1008.19 1008.50 1008.47 1007.75 1008.24 1008.33
Wind_Speed
18 18 16 17 19 25 9 4 4 4 3 4 1 0 2 6 7 5 3 3 2 2 1 2 3 1 3 8 3 1 2 6 1 4 5 5 5 2 5 5 7 4 3 8
18 17 15 13 14 13 4 3 5 5 4 2 3 6 5 3 6 5 5 3 1 2 0 2 2 4 6 7 5 2 2 2 4 9 7 6 1 3 3 2 3 6 4 8
18 17 15 12 11 10 2 2 4 6 6 1 3 4 4 6 6 2 5 4 2 3 3 6 4 7 4 7 4 9 8 3 7 7 7 2 6 6 6 3 3 4 7 6
18 17 16 16 11 11 2 1 3 2 4 4 3 2 3 5 8 6 5 6 4 1 4 3 3 3 7 5 5 4 4 4 6 6 6 5 7 9 8 5 7 6 6 6
16 17 16 18 10 10 2 0 2 5 3 3 5 4 5 5 6 3 7 1 1 3 5 5 2 0 1 5 4 3 2 3 3 4 8 7 5 11 8 7 5 7 5 9
15 16 16 16 11 4 1 2 2 4 3 3 2 2 3 3 6 5 2 3 2 1 7 8 8 8 6 7 7 3 5 5 2 6 3 6 6 7 5 3 4 4 5 6
15 15 16 16 12 2 1 2 2 3 5 2 4 2 2 4 6 5 5 4 1 4 2 3 4 3 7 9 12 7 6 6 5 4 2 3 6 3 2 4 6 6 6 7
15 14 15 15 13 4 1 1 1 1 4 3 5 1 2 6 6 3 4 3 4 5 4 5 7 7 8 6 2 3 9 5 3 4 4 5 3 3 2 1 7 6 5 5
14 13 14 15 15 8 2 2 2 2 1 6 1 0 1 2 3 6 5 6 6 5 4 4 3 3 3 7 11 5 7 4 5 2 3 3 5 1 2 2 6 5 4 3
14 13 13 15 15 13 3 2 3 1 3 4 4 4 4 2 1 3 5 7 7 3 3 3 4 4 3 4 3 6 4 3 2 2 3 6 6 4 3 1 8 3 3 3
13 13 12 13 15 15 4 3 3 3 3 6 4 4 4 2 2 2 5 5 4 4 4 3 3 3 3 2 3 1 2 1 1 0 2 6 1 3 5 8 5 4 4 4
12 13 13 12 13 11 7 2 2 1 3 7 3 7 11 8 10 6 2 3 2 4 4 0 1 1 1 3 4 1 1 6 5 8 7 5 5 6 5 4 7 5 3 4
11 11 13 11 13 11 9 2 3 2 2 6 3 11 10 10 15 12 5 3 6 2 4 4 2 3 4 2 5 2 0 2 2 2 5 7 6 7 7 3 5 7 2 4
11 11 12 12 12 9 10 3 2 2 2 3 8 3 6 2 4 10 15 11 2 4 3 2 3 2 3 4 3 3 4 4 4 6 8 6 9 9 9 6 6 5 3 2
11 11 12 10 14 11 4 2 4 3 2 3 5 9 16 9 9 13 13 12 5 2 1 2 4 3 1 1 1 5 6 8 5 7 6 5 8 7 4 3 4 4 1 5
10 10 12 8 10 8 3 3 2 6 4 2 5 5 7 2 6 7 10 9 3 4 5 4 3 4 3 2 5 6 5 4 8 8 5 8 5 2 3 1 1 1 5 5
8 10 9 8 12 3 4 4 1 5 2 3 5 6 6 4 3 2 3 3 3 4 3 3 4 4 5 3 6 6 12 10 8 11 5 4 4 4 6 5 4 3 4 4
8 8 10 8 7 2 5 4 8 6 3 1 3 6 6 2 1 3 1 4 2 1 4 1 2 1 2 4 9 6 6 9 7 6 6 4 7 7 6 5 4 3 1 5
6 8 7 3 1 3 5 4 7 2 2 3 3 3 5 5 3 2 3 3 2 0 3 3 5 2 5 8 3 5 5 5 6 4 4 5 6 7 7 7 7 6 1 7
6 4 2 3 5 7 2 3 2 2 2 1 4 1 4 3 2 2 4 2 2 2 5 2 3 5 3 2 5 6 5 7 6 2 2 4 5 8 2 2 3 2 6 6
1 3 3 3 3 2 1 2 3 3 3 4 5 8 4 3 1 2 0 3 1 1 5 5 2 3 3 3 4 5 6 3 6 6 6 3 3 3 5 4 4 6 5 3
3 2 4 2 2 1 2 4 2 4 6 4 5 6 6 4 3 3 1 3 2 5 1 1 1 4 4 4 5 4 5 6 6 6 7 2 3 3 5 2 1 3 1 4
3 1 3 3 2 5 5 7 5 4 4 4 3 3 5 1 2 3 3 3 5 1 2 1 2 4 2 4 5 7 6 3 4 4 5 4 2 2 0 2 2 3 3 2
4 4 4 3 4 4 5 4 4 6 3 2 3 2 3 2 3 3 3 4 3 1 2 1 2 2 4 3 8 7 2 4 6 8 7 4 2 2 1 1 3 3 6 6
2 1 3 6 5 4 5 5 3 5 2 2 1 2 3 1 3 2 3 1 4 1 3 3 3 4 5 7 7 7 7 5 4 4 5 2 2 4 5 3 2 2 3 2
2 2 4 3 4 3 3 3 5 2 2 1 1 4 4 2 1 2 1 1 3 3 2 2 1 3 2 3 3 4 2 1 2 2 3 4 4 1 3 1 6 7 6 5
3 2 2 6 6 4 3 2 3 1 2 2 3 5 1 1 3 1 2 2 2 2 1 1 2 1 3 3 3 2 3 3 2 4 6 5 3 3 6 7 7 7 6 5
Wind_Direction
337 334 337 344 348 342 35 8 347 310 10 38 28 20 227 293 318 346 328 108 111 127 144 327 331 26 282 327 194 98 52 129 130 231 300 273 176 97 121 111 292 235 186 268
341 337 333 345 350 23 336 358 269 308 71 86 334 305 300 289 339 324 10 15 45 179 197 345 220 1 355 8 64 109 186 17 25 350 354 347 213 263 157 121 81 226 180 269
341 338 338 339 343 353 75 10 343 324 36 47 128 353 296 326 307 281 349 304 18 46 40 17 357 354 12 357 58 50 84 111 150 190 214 222 305 299 306 151 161 253 229 280
341 337 334 335 338 341 80 47 267 187 316 329 352 303 332 345 1 351 332 348 49 136 51 33 33 349 332 332 22 47 86 203 185 231 238 220 232 262 292 239 219 189 242 231
338 336 332 336 340 341 60 231 22 352 287 310 343 352 19 351 329 257 317 182 113 95 134 159 265 168 185 251 311 87 24 264 182 255 263 257 262 286 253 240 236 262 274 285
332 334 334 331 334 20 8 307 329 112 281 348 28 175 347 324 347 296 287 268 314 187 212 188 211 201 197 212 220 227 174 161 122 258 282 341 319 249 211 248 219 202 237 239
323 330 330 328 330 89 143 258 83 82 265 196 211 352 333 314 310 258 296 349 213 281 5 86 51 336 257 249 252 183 184 163 144 256 44 243 257 345 230 245 248 228 276 275
315 322 325 321 324 230 196 285 270 187 261 228 296 252 287 315 305 271 284 296 223 313 34 36 16 338 355 316 279 311 216 128 186 163 187 284 295 291 280 276 283 216 243 296
307 312 319 321 320 302 177 254 201 243 164 242 161 276 308 262 291 325 283 309 309 43 78 76 130 244 262 315 326 82 73 89 116 114 161 255 231 209 295 89 288 237 232 301
297 302 309 316 307 313 198 271 215 251 236 263 178 204 197 202 107 258 299 324 339 21 70 116 172 245 230 265 270 325 348 14 169 213 180 267 259 140 153 48 244 276 210 241
290 293 298 309 308 305 159 260 223 193 229 277 233 225 195 346 102 184 284 8 335 25 66 141 224 175 249 315 265 261 196 86 317 77 48 284 183 121 167 217 272 253 233 204
276 286 290 299 304 297 211 250 299 144 194 251 270 242 232 196 197 167 272 217 241 208 91 301 127 304 1 170 279 127 337 184 201 177 220 209 280 243 282 218 227 244 222 177
271 275 285 287 299 298 279 170 295 289 266 279 252 250 254 228 222 193 181 261 217 212 179 161 190 234 130 203 241 287 20 122 217 344 293 246 247 269 257 251 257 290 330 261
271 268 278 279 291 285 267 163 214 229 299 267 280 314 284 235 171 182 210 223 62 108 95 142 169 192 174 221 231 181 213 136 223 256 285 292 266 234 246 272 275 299 328 286
265 263 274 266 291 303 227 186 220 193 191 283 280 304 272 247 203 207 205 205 152 127 90 129 217 225 124 241 53 240 181 206 187 231 246 215 252 240 152 219 258 267 13 336
263 265 269 278 281 248 117 309 226 190 188 277 304 283 281 271 174 171 172 186 137 149 157 203 236 257 134 246 237 249 218 221 190 271 265 224 274 43 86 244 324 20 355 350
258 267 269 265 273 193 195 188 102 116 125 235 299 292 268 258 151 107 112 112 171 143 160 197 194 228 139 210 245 275 286 285 268 244 198 224 166 182 150 142 102 50 348 328
260 263 278 264 177 315 291 229 235 150 198 215 259 271 325 194 149 107 92 106 50 347 190 71 187 21 138 249 248 277 253 271 254 290 211 209 134 131 148 144 129 117 44 19
237 273 201 113 101 207 239 212 157 204 211 227 190 251 272 347 17 98 45 91 126 310 190 228 117 218 222 226 259 268 264 237 277 2 115 144 145 155 162 157 144 124 211 76
251 191 193 209 218 229 43 23 127 153 232 238 231 211 271 23 350 20 98 41 184 178 239 108 169 241 285 289 242 244 251 221 167 144 183 170 194 193 128 27 5 232 167 148
248 187 229 231 206 115 59 183 160 171 256 214 228 186 214 281 124 251 199 165 151 198 250 158 221 279 251 238 287 304 317 300 219 255 269 263 6 133 110 145 193 230 215 157
276 276 256 120 158 208 181 189 223 219 227 220 181 208 187 251 152 128 308 147 109 242 205 123 305 272 305 277 276 296 318 321 322 345 326 74 133 153 134 151 346 281 179 38
283 129 262 156 174 186 215 186 205 222 220 224 188 199 175 253 93 65 89 141 223 90 70 196 241 312 332 281 280 263 253 309 272 319 6 34 207 135 211 229 264 219 30 302
242 176 184 235 178 238 213 216 207 234 204 234 183 166 162 184 118 154 158 231 105 5 85 309 269 260 189 331 277 297 355 6 358 348 343 330 226 217 313 354 48 325 300 302
270 204 231 214 234 254 247 233 254 247 265 56 356 62 114 55 138 180 101 202 47 251 234 205 196 231 263 258 261 275 303 341 342 329 339 212 254 294 313 360 51 185 261 237
273 228 275 302 287 277 280 256 255 234 143 51 5 83 64 28 79 83 113 47 172 195 212 205 211 260 265 296 303 272 1 20 347 351 342 1 10 307 161 30 48 48 27 332
268 267 283 268 266 275 292 267 330 325 102 124 94 57 34 66 64 42 159 141 171 185 157 218 237 256 309 313 338 56 83 44 10 1 12 17 349 104 63 61 328 33 344 289